Epoch 2002 Jan. 6.0 TT = JDT 2452280.5 T 2002 Jan. 19.70542 TT MPC q 2.1489371 (2000.0) P Q n 0.12233205 Peri. 316.31630 +0.11624727 +0.96437723 a 4.0189187 Node 318.60239 -0.78363301 -0.05794044 e 0.4652947 Incl. 21.05922 -0.61025066 +0.25810747 P 8.06
m1 = 14.7 + 5 log d + 10.0 log r